sat.trackr.live / text

‹ back to catalog

STARLINK-6293

NORAD 57354 · 2023-099AC

PAYLOAD ACTIVE UNKNOWN

§ Identity

Operator
Country
US
Launch date
2023-07-16
Launch site
AFETR
Launch vehicle
Mass (kg)
RCS (m²)

Purposes: comms

External: N2YO · Heavens-Above · Gunter

§ Orbital elements

Epoch: 2026-09-20T21:36:28.836864Z

Period
94.27 min
Inclination
43.0003°
Eccentricity
0.0000883
Mean motion
15.27576927 rev/d
Perigee alt
482.5 km
Apogee alt
483.7 km
Semi-major
6,861.2 km
B*
1.0502e-5
RAAN
219.2817°
Arg perigee
250.3352°
Mean anomaly
109.7405°
Rev number
17,605

§ Raw data

STARLINK-62931 57354U 23099AC  26263.90033376  .00000027  00000+0  10502-4 0  99972 57354  43.0003 219.2817 0000883 250.3352 109.7405 15.27576927176051

JSON: /api/v1/satellites/57354 · /tle

For live sub-satellite position, see the globe view (requires WebGL).

§ Visibility from observer

Set your observer location to see the next 7 days of passes ≥ 10°. The values pass through the URL so the page stays shareable.

No JS? Fill the form by hand. The geolocation button needs JavaScript.